836  
ASUS44 KSHV 230410  
RWRSHV  
 
WEATHER ROUNDUP FOR THE FOUR STATE AREA  
NATIONAL WEATHER SERVICE SHREVEPORT LA  
1000 PM CST WED JAN 22 2020  
 
NOTE: "FAIR" INDICATES FEW OR NO CLOUDS BELOW 12000 FEET  
WITH NO SIGNIFICANT WEATHER AND/OR S TO VISIBILITY
.  
 
!LAZ001-LAZ014-TXZ097-230500  
SHREVEPORT...MONROE...TEXARKANA RADIOS  
 
CITY SKY/WX TMP DP RH WIND PRES REMARKS
 
SHREVEPORT LGT RAIN 41 40 96 E8 30.04F  
MONROE LGT RAIN 40 37 89 E6 30.12F  
NATCHITOCHES HVY RAIN 43 43 99 SE8 30.07S  
TEXARKANA LGT RAIN 36 35 96 VRB6 30.06F FOG WCI 31  

 
 
!LAZ001-LAZ014-TXZ097-230500  
OTHER LOCATIONS...  
 
CITY SKY/WX TMP DP RH WIND PRES REMARKS
 
DOWNTOWN SHV LGT RAIN 42 39 89 E6 30.05F  
BOSSIER CITY LGT RAIN 40 40 100 E7 30.05S  
RUSTON RAIN 39 38 94 SE6 30.12F WCI 35  
LITTLE ROCK LGT RAIN 34 33 96 E8 30.15F FOG WCI 27  
EL DORADO LGT RAIN 37 37 100 CALM 30.12R FOG  
JACKSON CLOUDY 44 24 45 SE10 30.15S  
NEW ORLEANS CLOUDY 52 44 74 E7 30.17R  
HOUSTON LGT RAIN 59 57 93 SE16 29.95S  
LUFKIN LGT RAIN 47 46 97 SE10 29.99S FOG  
TYLER RAIN 45 43 93 SE9 29.97F  
DAL FT WORTH DRIZZLE 44 44 100 SE12 29.90F  

 
 
!TXZ136-TXZ165-230500  
TYLER...LUFKIN RADIOS  
 
CITY SKY/WX TMP DP RH WIND PRES REMARKS
 
TYLER RAIN 45 43 93 SE9 29.97F  
GILMER RAIN 40 39 99 E3 30.01F  
LONGVIEW LGT RAIN 42 39 89 E8 30.00F  
LUFKIN LGT RAIN 47 46 97 SE10 29.99S FOG  

 
 
!TXZ136-TXZ165-230500  
OTHER LOCATIONS...  
 
CITY SKY/WX TMP DP RH WIND PRES REMARKS
 
NACOGDOCHES CLOUDY 47 47 100 SE9 30.00F  
BEAUMONT LGT RAIN 59 57 93 SE18G30 30.00F  
HOUSTON LGT RAIN 59 57 93 SE16 29.95S  
COLLEGE STN LGT RAIN 58 56 93 SE8 29.93F FOG  
AUSTIN CLOUDY 59 57 93 W5 29.92S  
DAL FT WORTH DRIZZLE 44 44 100 SE12 29.90F  
TEXARKANA LGT RAIN 36 35 96 VRB6 30.06F FOG WCI 31  
SHREVEPORT LGT RAIN 41 40 96 E8 30.04F  
FORT POLK NOT AVBL  
LAKE CHARLES CLOUDY 52 49 89 SE10 30.05R  

 
 
 
CLICK HERE TO GO TO PREVIOUS BULLETINS.

The Nexlab LA Page
The Nexlab TX Page
The Nexlab AR Page
The Nexlab OK Page Main Text Page